This demonstration page uses our WeatherBlox Daily Observations layout. Learn more.

Left ArrowRight Arrow

Hourly Observations for February 12, 2016

Temp ( °F °C ) Dew Point ( °F °C ) Humidity (%) Winds ( mph kmh ) Pressure ( in mb ) Visibility ( mi km ) Precip ( " mm )
12:54 am 00:54 Cloudy with Mist and Fog 29 -1.7 25 -3.9 85 85 N 5 7 30.26 1025 5 8 0.00 0.00
1:54 am 01:54 Cloudy with Mist and Fog 29 -1.7 25 -3.9 85 85 NNW 7 11 30.29 1026 5 8 0.00 0.00
2:16 am 02:16 Cloudy with Mist and Fog 29 -1.7 25 -3.9 85 85 NNW 8 13 30.36 1028 6 10 0.00 0.00
2:54 am 02:54 Cloudy with Mist and Fog 29 -1.7 25 -3.9 85 85 N 9 15 30.31 1026 5 8 0.00 0.00
3:43 am 03:43 Cloudy with Haze 28 -2 25 -4 86 86 N 15 24 30.36 1028 6 10 0.00 0.00
3:54 am 03:54 Cloudy with Mist and Fog 28 -2.2 24 -4.4 85 85 N 18 30 30.33 1027 6 10 0.00 0.00
4:54 am 04:54 Cloudy 28 -2.2 23 -5 81 81 N 17 28 30.37 1028 7 11 0.00 0.00
5:54 am 05:54 Cloudy 27 -2.8 21 -6.1 78 78 N 17 28 30.40 1030 9 14 0.00 0.00
6:03 am 06:03 Cloudy 27 -3 21 -6 80 80 N 16 26 30.42 1030 8 13 0.00 0.00
6:46 am 06:46 Partly Cloudy 23 -5 18 -8 80 80 N 9 15 30.48 1032 8 13 0.00 0.00
6:54 am 06:54 Mostly Clear 23 -5 18 -7.8 81 81 N 12 19 30.44 1031 8 13 0.00 0.00
7:25 am 07:25 Cloudy 24 -4.4 19 -7.2 81 81 N 12 19 30.48 1032 7 11 0.00 0.00
7:54 am 07:54 Cloudy 24 -4.4 19 -7.2 81 81 N 12 19 30.47 1032 7 11 0.00 0.00
8:47 am 08:47 Cloudy 25 -4 19 -7 80 80 N 9 15 30.50 1033 7 11 0.00 0.00
8:54 am 08:54 Cloudy 25 -3.9 19 -7.2 78 78 N 9 15 30.50 1033 7 11 0.00 0.00
9:54 am 09:54 Cloudy 26 -3.3 20 -6.7 78 78 N 12 19 30.52 1034 7 11 0.00 0.00
10:51 am 10:51 Cloudy 27 -3 19 -7 74 74 N 17 28 30.56 1035 8 13 0.00 0.00
10:54 am 10:54 Cloudy 27 -2.8 20 -6.7 75 75 N 17 28 30.54 1034 8 13 0.00 0.00
11:54 am 11:54 Mostly Cloudy 27 -2.8 17 -8.3 66 66 N 17 28 30.56 1035 10 16 0.00 0.00
12:06 pm 12:06 Partly Cloudy 27 -3 18 -8 69 69 N 18 30 30.59 1036 10 16 0.00 0.00
12:45 pm 12:45 Cloudy 27 -2.8 16 -8.9 63 63 N 20 31 30.59 1036 10 16 0.00 0.00
12:52 pm 12:52 Cloudy 27 -3 16 -9 64 64 N 18 30 30.59 1036 10 16 0.00 0.00
12:54 pm 12:54 Cloudy 27 -2.8 16 -8.9 63 63 N 20 31 30.58 1035 10 16 0.00 0.00
1:54 pm 13:54 Mostly Sunny 27 -2.8 15 -9.4 61 61 N 16 26 30.58 1035 10 16 0.00 0.00
2:54 pm 14:54 Mostly Sunny 26 -3.3 15 -9.4 63 63 N 17 28 30.58 1036 10 16 0.00 0.00
3:54 pm 15:54 Partly Cloudy 25 -3.9 14 -10 63 63 NNE 15 24 30.59 1036 10 16 0.00 0.00
4:05 pm 16:05 Mostly Cloudy 25 -3.9 14 -10 63 63 NNE 16 26 30.65 1038 10 16 0.00 0.00
4:13 pm 16:13 Partly Cloudy 25 -3.9 14 -10 63 63 NNE 17 28 30.65 1038 10 16 0.00 0.00
4:54 pm 16:54 Sunny 24 -4.4 13 -10.6 62 62 N 17 28 30.61 1037 10 16 0.00 0.00
5:54 pm 17:54 Mostly Sunny 20 -6.7 12 -11.1 71 71 NNE 16 26 30.63 1037 10 16 0.00 0.00
6:54 pm 18:54 Clear 18 -7.8 9 -12.8 68 68 N 12 19 30.66 1038 10 16 0.00 0.00
7:54 pm 19:54 Clear 17 -8.3 10 -12.2 74 74 NNE 13 20 30.67 1039 10 16 0.00 0.00
8:54 pm 20:54 Cloudy 16 -8.9 8 -13.3 71 71 NNE 10 17 30.70 1040 10 16 0.00 0.00
9:54 pm 21:54 Cloudy 16 -8.9 5 -15 62 62 NNE 16 26 30.70 1040 10 16 0.00 0.00
10:54 pm 22:54 Cloudy 15 -9.4 5 -15 64 64 NNE 12 19 30.68 1039 10 16 0.00 0.00
11:54 pm 23:54 Cloudy 15 -9.4 4 -15.6 61 61 NE 9 15 30.69 1039 10 16 0.00 0.00

Powered by AerisWeather